Santa Barbara, CA

3:23 AM PDT on May 26, 2018 (GMT -0700)
Santa Barbara Municipal

Weather History for KSBA - October, 2011

Change the Weather History Date:

Sunday, October 23, 2011

  Actual Average Record
Temperature  
Mean Temperature 59 °F 61 °F  
Max Temperature 62 °F 72 °F 97 °F (1959)
Min Temperature 56 °F 50 °F 40 °F (1953)
Degree Days  
Heating Degree Days 6 5  
Month to date heating degree days 71 80  
Since 1 July heating degree days 207 175  
Cooling Degree Days 0 0  
Month to date cooling degree days 20 11  
Year to date cooling degree days 105 182  
Growing Degree Days 6 (Base 50)    
Moisture  
Dew Point 56 °F    
Average Humidity 92    
Maximum Humidity 100    
Minimum Humidity 84    
Precipitation  
Precipitation 0.00 in 0.02 in 0.14 in (1973)
Month to date precipitation 0.85 0.49  
Year to date precipitation 15.41 12.95  
Since 1 July precipitation 0.85  
Sea Level Pressure  
Sea Level Pressure 29.95 in    
Wind  
Wind Speed 4 mph (ESE)    
Max Wind Speed 9 mph    
Max Gust Speed 22 mph    
Visibility 2 miles    
Events Fog    
T = Trace of Precipitation, MM = Missing Value Source: NWS Daily Summary

Daily Weather History Graph

Daily Weather History Graph

Search for Another Location

Airport or City:

Astronomy

Oct. 23, 2011 Rise Set
Actual Time 7:11 AM PDT 6:15 PM PDT
Civil Twilight 6:45 AM PDT 6:41 PM PDT
Nautical Twilight 6:16 AM PDT 7:10 PM PDT
Astronomical Twilight 5:47 AM PDT 7:39 PM PDT
Moon 3:32 AM PDT (10/23) 4:02 PM PDT (10/23)
Length of Visible Light 11h 55m
Length of Day
11h 04m
Waning Crescent, 13% of the Moon is Illuminated
Oct 23
Waning Crescent
Oct 26
New
Nov 2
First Quarter
Nov 10
Full
Nov 18
Last Quarter

Hourly Weather History & Observations

Time (PDT) Temp. Dew Point Humidity Pressure Visibility Wind Dir Wind Speed Gust Speed Precip Events Conditions
12:09 AM 51.8 °F 51.8 °F 100% 29.94 in 0.2 mi SSE 3.5 mph - N/A Fog Fog
12:33 AM 55.4 °F 55.4 °F 100% 29.95 in 0.2 mi ESE 8.1 mph - N/A Fog Fog
12:46 AM 55.4 °F 55.4 °F 100% 29.96 in 0.5 mi SE 8.1 mph - N/A Fog Fog
12:53 AM 55.9 °F 55.9 °F 100% 29.96 in 0.5 mi SE 6.9 mph - N/A Fog Fog
1:19 AM 55.4 °F 55.4 °F 100% 29.96 in 1.5 mi ENE 5.8 mph - N/A   Overcast
1:53 AM 57.0 °F 55.9 °F 96% 29.96 in 1.5 mi East 3.5 mph - N/A   Overcast
2:09 AM 57.2 °F 55.4 °F 94% 29.96 in 3.0 mi East 4.6 mph - N/A   Overcast
2:19 AM 57.2 °F 55.4 °F 94% 29.96 in 2.5 mi Calm Calm - N/A   Overcast
2:45 AM 57.2 °F 55.4 °F 94% 29.96 in 4.0 mi NE 5.8 mph - N/A   Overcast
2:53 AM 55.9 °F 55.9 °F 100% 29.96 in 2.5 mi Calm Calm - N/A   Overcast
3:18 AM 55.4 °F 55.4 °F 100% 29.95 in 1.5 mi NNE 4.6 mph - N/A   Overcast
3:36 AM 55.4 °F 55.4 °F 100% 29.95 in 0.5 mi NNE 5.8 mph - N/A Fog Fog
3:53 AM 57.0 °F 55.9 °F 96% 29.94 in 0.8 mi NE 3.5 mph - N/A   Mist
4:04 AM 57.2 °F 55.4 °F 94% 29.94 in 1.2 mi ENE 3.5 mph - N/A   Overcast
4:16 AM 57.2 °F 57.2 °F 100% 29.93 in 2.0 mi ENE 4.6 mph - N/A   Overcast
4:53 AM 57.0 °F 57.0 °F 100% 29.93 in 1.8 mi SE 3.5 mph - N/A   Overcast
5:16 AM 57.2 °F 55.4 °F 94% 29.93 in 0.8 mi NE 3.5 mph - N/A   Mist
5:53 AM 57.0 °F 55.9 °F 96% 29.93 in 0.8 mi ENE 4.6 mph - N/A   Mist
6:53 AM 57.0 °F 55.9 °F 96% 29.94 in 0.2 mi NE 3.5 mph - N/A Fog Fog
7:53 AM 57.0 °F 55.9 °F 96% 29.96 in 0.2 mi NE 3.5 mph - N/A Fog Fog
8:00 AM 57.2 °F 55.4 °F 94% 29.96 in 0.5 mi ENE 3.5 mph - N/A Fog Fog
8:53 AM 57.9 °F 55.9 °F 93% 29.97 in 0.5 mi Calm Calm - N/A Fog Fog
9:29 AM 59.0 °F 57.2 °F 94% 29.96 in 1.0 mi ESE 3.5 mph - N/A   Overcast
9:53 AM 57.9 °F 55.9 °F 93% 29.97 in 1.0 mi SE 3.5 mph - N/A   Overcast
10:53 AM 59.0 °F 55.9 °F 90% 29.98 in 1.5 mi SSE 5.8 mph - N/A   Mostly Cloudy
11:53 AM 60.1 °F 57.0 °F 90% 29.98 in 2.0 mi South 4.6 mph - N/A   Mostly Cloudy
12:53 PM 60.1 °F 57.0 °F 90% 29.97 in 2.0 mi SSW 5.8 mph - N/A   Overcast
1:53 PM 60.1 °F 55.9 °F 86% 29.95 in 2.0 mi SSW 5.8 mph - N/A   Overcast
2:53 PM 60.1 °F 55.9 °F 86% 29.94 in 2.0 mi SW 4.6 mph - N/A   Mostly Cloudy
3:00 PM 60.8 °F 55.4 °F 82% 29.93 in 7.0 mi SSW 3.5 mph - N/A   Overcast
3:32 PM 60.8 °F 55.4 °F 82% 29.92 in 4.0 mi SW 6.9 mph - N/A   Haze
3:53 PM 60.1 °F 55.9 °F 86% 29.93 in 4.0 mi WSW 5.8 mph - N/A   Mostly Cloudy
4:20 PM 60.8 °F 55.4 °F 82% 29.93 in 3.0 mi West 5.8 mph - N/A   Overcast
4:53 PM 59.0 °F 55.9 °F 90% 29.93 in 3.0 mi West 6.9 mph - N/A   Overcast
5:53 PM 59.0 °F 55.9 °F 90% 29.93 in 3.0 mi West 4.6 mph - N/A   Overcast
6:53 PM 57.9 °F 55.9 °F 93% 29.95 in 3.0 mi WNW 3.5 mph - N/A   Overcast
7:53 PM 57.9 °F 55.9 °F 93% 29.96 in 3.0 mi North 4.6 mph - N/A   Overcast
8:53 PM 57.9 °F 55.9 °F 93% 29.98 in 3.0 mi Calm Calm - N/A   Overcast
9:53 PM 57.9 °F 55.9 °F 93% 29.98 in 6.0 mi Calm Calm - N/A   Overcast
10:53 PM 57.9 °F 55.9 °F 93% 29.98 in 4.0 mi SE 3.5 mph - N/A   Overcast
11:53 PM 57.9 °F 55.9 °F 93% 29.99 in 4.0 mi SE 4.6 mph - N/A   Overcast